Location: *
(33.8649°S, 62.1526°E)
Time: 18:00:15
(UTC+00:00)

Cosmos 44 Rocket - Pass Details

Date: 07 December 2021
Orbit: 648 x 741 km, 65.1° (Epoch: 23 January)

Event Time Altitude Azimuth Distance (km) Brightness Sun altitude
Exits shadow 17:57:39 - 294° (WNW) 2,526 6.2 -28.1°
Reaches altitude 10° 17:59:06 10° 284° (WNW) 2,061 5.9 -28.3°
Maximum altitude 18:02:46 22° 232° (SW) 1,419 5.5 -28.6°
Drops below altitude 10° 18:06:30 10° 180° (S) 2,097 6.5 -29.0°
Sets 18:09:17 0° 165° (SSE) 3,028 7.3 -29.2°
